TimeEST,TemperatureF,Dew PointF,Humidity,Sea Level PressureIn,VisibilityMPH,Wind Direction,Wind SpeedMPH,Gust SpeedMPH,PrecipitationIn,Events,Conditions,WindDirDegrees,DateUTC
12:15 AM,35.2,35.2,100,30.21,7.0,SE,3.5,-,N/A,,Clear,130,2012-11-10 05:15:00
12:35 AM,34.0,34.0,100,30.22,7.0,Calm,Calm,-,N/A,,Clear,0,2012-11-10 05:35:00
12:55 AM,36.3,36.3,100,30.21,10.0,Calm,Calm,-,N/A,,Clear,0,2012-11-10 05:55:00
1:15 AM,34.2,34.2,100,30.21,7.0,Calm,Calm,-,N/A,,Clear,0,2012-11-10 06:15:00
1:35 AM,33.4,33.4,100,30.21,5.0,Calm,Calm,-,N/A,,Clear,0,2012-11-10 06:35:00
1:55 AM,33.1,33.1,100,30.22,7.0,Calm,Calm,-,N/A,,Clear,0,2012-11-10 06:55:00
2:15 AM,33.1,33.1,100,30.23,10.0,Calm,Calm,-,N/A,,Clear,0,2012-11-10 07:15:00
2:35 AM,33.8,33.8,100,30.23,7.0,Calm,Calm,-,N/A,,Clear,0,2012-11-10 07:35:00
2:55 AM,33.8,33.8,100,30.24,7.0,Calm,Calm,-,N/A,,Clear,0,2012-11-10 07:55:00
3:15 AM,32.0,32.0,100,30.23,5.0,Calm,Calm,-,N/A,,Clear,0,2012-11-10 08:15:00
3:35 AM,32.0,32.0,100,30.23,5.0,Calm,Calm,-,N/A,,Clear,0,2012-11-10 08:35:00
3:55 AM,32.0,32.0,100,30.24,7.0,Calm,Calm,-,N/A,,Clear,0,2012-11-10 08:55:00
4:15 AM,31.8,31.8,100,30.24,7.0,Calm,Calm,-,N/A,,Clear,0,2012-11-10 09:15:00
4:35 AM,31.1,31.1,100,30.25,7.0,Calm,Calm,-,N/A,,Clear,0,2012-11-10 09:35:00
5:15 AM,31.8,31.8,100,30.26,4.0,Calm,Calm,-,N/A,,Clear,0,2012-11-10 10:15:00
5:35 AM,30.7,30.7,100,30.28,5.0,Calm,Calm,-,N/A,,Clear,0,2012-11-10 10:35:00
5:55 AM,31.8,31.8,100,30.29,5.0,Calm,Calm,-,N/A,,Clear,0,2012-11-10 10:55:00
6:15 AM,31.3,31.3,100,30.28,4.0,Calm,Calm,-,N/A,,Clear,0,2012-11-10 11:15:00
6:35 AM,31.5,31.5,100,30.29,5.0,Calm,Calm,-,N/A,,Clear,0,2012-11-10 11:35:00
6:55 AM,32.7,32.7,100,30.30,5.0,Calm,Calm,-,N/A,,Clear,0,2012-11-10 11:55:00
7:15 AM,33.1,33.1,100,30.31,7.0,Calm,Calm,-,N/A,,Clear,0,2012-11-10 12:15:00
7:35 AM,34.0,34.0,100,30.32,4.0,Calm,Calm,-,N/A,,Clear,0,2012-11-10 12:35:00
7:55 AM,37.2,37.2,100,30.32,5.0,Calm,Calm,-,N/A,,Clear,0,2012-11-10 12:55:00
8:15 AM,39.7,39.6,99,30.32,5.0,Calm,Calm,-,N/A,,Clear,0,2012-11-10 13:15:00
8:35 AM,42.1,40.5,94,30.33,7.0,Calm,Calm,-,N/A,,Clear,0,2012-11-10 13:35:00
8:55 AM,44.6,41.9,90,30.33,10.0,Calm,Calm,-,N/A,,Clear,0,2012-11-10 13:55:00
9:15 AM,46.6,41.5,83,30.33,10.0,Calm,Calm,-,N/A,,Clear,0,2012-11-10 14:15:00
9:35 AM,48.2,42.4,80,30.33,10.0,Calm,Calm,-,N/A,,Clear,0,2012-11-10 14:35:00
9:55 AM,48.2,42.8,82,30.33,10.0,Calm,Calm,-,N/A,,Clear,0,2012-11-10 14:55:00
10:15 AM,51.4,43.3,74,30.33,10.0,Calm,Calm,-,N/A,,Clear,0,2012-11-10 15:15:00
10:35 AM,53.8,45.0,72,30.34,10.0,Calm,Calm,-,N/A,,Clear,0,2012-11-10 15:35:00
10:55 AM,54.0,44.4,70,30.33,10.0,Calm,Calm,-,N/A,,Clear,0,2012-11-10 15:55:00
11:15 AM,56.8,44.6,64,30.33,10.0,Calm,Calm,-,N/A,,Clear,0,2012-11-10 16:15:00
11:35 AM,58.6,45.7,62,30.32,10.0,Calm,Calm,-,N/A,,Clear,0,2012-11-10 16:35:00
11:55 AM,59.5,45.1,59,30.31,10.0,Calm,Calm,-,N/A,,Clear,0,2012-11-10 16:55:00
12:15 PM,61.0,46.2,58,30.29,10.0,Calm,Calm,-,N/A,,Clear,0,2012-11-10 17:15:00
12:35 PM,62.6,45.1,53,30.29,10.0,Calm,Calm,-,N/A,,Clear,0,2012-11-10 17:35:00
12:55 PM,64.0,45.7,51,30.28,7.0,Calm,Calm,-,N/A,,Clear,0,2012-11-10 17:55:00
1:15 PM,65.3,46.2,50,30.28,10.0,Calm,Calm,-,N/A,,Clear,0,2012-11-10 18:15:00
1:35 PM,64.8,45.5,50,30.27,10.0,Calm,Calm,-,N/A,,Clear,0,2012-11-10 18:35:00
1:55 PM,66.2,46.8,50,30.27,10.0,Calm,Calm,-,N/A,,Clear,0,2012-11-10 18:55:00
2:15 PM,65.7,46.9,51,30.27,10.0,Calm,Calm,-,N/A,,Clear,0,2012-11-10 19:15:00
2:35 PM,65.8,47.3,51,30.27,10.0,Calm,Calm,-,N/A,,Clear,0,2012-11-10 19:35:00
2:55 PM,66.2,47.1,50,30.27,10.0,Calm,Calm,-,N/A,,Clear,0,2012-11-10 19:55:00
3:15 PM,66.0,46.9,50,30.27,10.0,Calm,Calm,-,N/A,,Clear,0,2012-11-10 20:15:00
3:35 PM,66.4,47.3,50,30.27,10.0,Calm,Calm,-,N/A,,Clear,0,2012-11-10 20:35:00
3:55 PM,66.0,48.4,53,30.28,10.0,Calm,Calm,-,N/A,,Clear,0,2012-11-10 20:55:00
4:15 PM,65.7,49.8,57,30.28,10.0,Calm,Calm,-,N/A,,Clear,0,2012-11-10 21:15:00
4:35 PM,64.0,51.6,64,30.28,10.0,Calm,Calm,-,N/A,,Clear,0,2012-11-10 21:35:00
4:55 PM,60.8,50.0,68,30.29,10.0,Calm,Calm,-,N/A,,Clear,0,2012-11-10 21:55:00
5:15 PM,57.9,48.0,70,30.29,10.0,Calm,Calm,-,N/A,,Clear,0,2012-11-10 22:15:00
5:35 PM,51.1,46.8,85,30.30,10.0,Calm,Calm,-,N/A,,Clear,0,2012-11-10 22:35:00
5:55 PM,50.4,46.6,87,30.30,10.0,Calm,Calm,-,N/A,,Clear,0,2012-11-10 22:55:00
6:15 PM,48.9,45.7,89,30.31,10.0,Calm,Calm,-,N/A,,Clear,0,2012-11-10 23:15:00
6:35 PM,46.6,44.6,93,30.32,10.0,Calm,Calm,-,N/A,,Clear,0,2012-11-10 23:35:00
6:55 PM,46.8,44.8,93,30.32,7.0,Calm,Calm,-,N/A,,Clear,0,2012-11-10 23:55:00
7:15 PM,45.3,43.9,95,30.32,7.0,Calm,Calm,-,N/A,,Clear,0,2012-11-11 00:15:00
7:35 PM,43.3,43.0,99,30.33,10.0,Calm,Calm,-,N/A,,Clear,0,2012-11-11 00:35:00
7:55 PM,42.3,42.1,99,30.33,10.0,Calm,Calm,-,N/A,,Clear,0,2012-11-11 00:55:00
8:15 PM,43.5,43.5,100,30.33,10.0,Calm,Calm,-,N/A,,Clear,0,2012-11-11 01:15:00
8:35 PM,42.4,42.4,100,30.33,10.0,Calm,Calm,-,N/A,,Clear,0,2012-11-11 01:35:00
8:55 PM,40.1,40.1,100,30.34,7.0,Calm,Calm,-,N/A,,Clear,0,2012-11-11 01:55:00
9:15 PM,41.0,41.0,100,30.34,10.0,Calm,Calm,-,N/A,,Clear,0,2012-11-11 02:15:00
9:35 PM,40.6,40.6,100,30.34,7.0,Calm,Calm,-,N/A,,Clear,0,2012-11-11 02:35:00
9:55 PM,39.4,39.4,100,30.35,5.0,Calm,Calm,-,N/A,,Clear,0,2012-11-11 02:55:00
10:15 PM,39.7,39.7,100,30.35,5.0,Calm,Calm,-,N/A,,Clear,0,2012-11-11 03:15:00
10:35 PM,39.0,39.0,100,30.35,7.0,Calm,Calm,-,N/A,,Clear,0,2012-11-11 03:35:00
10:55 PM,39.0,39.0,100,30.36,7.0,Calm,Calm,-,N/A,,Clear,0,2012-11-11 03:55:00
11:15 PM,38.8,38.8,100,30.36,7.0,Calm,Calm,-,N/A,,Clear,0,2012-11-11 04:15:00
11:35 PM,39.2,39.2,100,30.36,10.0,Calm,Calm,-,N/A,,Clear,0,2012-11-11 04:35:00